Location: *
(28.3744°N, 81.5492°W)
Time: 03:31:49
(UTC+00:00)

Spot 2 Rocket - Pass Details

Date: 15 June 2025
Orbit: 753 x 766 km, 98.3° (Epoch: 11 July)

Event Time Altitude Azimuth Distance (km) Brightness Sun altitude
Exits shadow 02:48:09 82° 139° (SE) 771 3.3 -25.7°
Maximum altitude 02:48:21 86° 78° (ENE) 766 3.3 -25.8°
Drops below altitude 10° 02:53:26 10° 349° (N) 2,300 6.7 -26.5°
Sets 02:55:45 0° 349° (N) 3,230 7.7 -26.8°
